"TOA5","AWS1","CR1000","7964","CR1000.Std.14","CPU:AWS1_114.CR1","64363","TBL110"
"TIMESTAMP","RECORD","Wind_spd_WVc(1)","Wind_spd_WVc(2)","Air_Temp_Avg","Humidity_Avg","SW_upper_Wm2_Avg","Rain_Tot","Press_Avg","Issui_Tot","Depth_cm","SR50A_Raw","Quality","Ground_Temp_Avg(1)","Ground_Temp_Avg(2)","SW_lower_Wm2_Avg","Albedo_Avg","SWC_per(1)","SWC_per(2)","Period(1)","Period(2)"
"TS","RN","","","","","","","","","","","","","","","","","","",""
"","","WVc","WVc","Avg","Avg","Avg","Tot","Avg","Tot","Smp","Smp","Smp","Avg","Avg","Avg","Avg","Smp","Smp","Smp","Smp"
"2016-10-04 00:00:00",255949,0.211,141.5,16.48,76.57,0.9904314,0,867.2613,0,-1.297,3.102,274,18.14,18.25,2.925526,3.18,50.72,57.91,33.47,35.2
"2016-10-04 00:10:00",255950,0.168,199.6,16.37,76.29,1.548532,0,867.4255,0,-2.194,3.107,261,18.12,18.25,2.880051,1.969,50.72,57.91,33.47,35.2
"2016-10-04 00:20:00",255951,0.321,139.6,16.43,76.32,1.976933,0,867.6614,0,-1.639,3.103,236,18.14,18.25,2.898999,1.518,50.72,57.91,33.47,35.2
"2016-10-04 00:30:00",255952,0.802,179.7,15.94,80.8,1.454205,0,867.6172,0,-0.194,3.095,264,18.08,18.25,2.016036,1.561,50.72,57.91,33.47,35.2
"2016-10-04 00:40:00",255953,0.657,174.9,15.63,81.7,0.9825708,0,867.6277,0,-0.731,3.1,216,18.06,18.27,1.959193,2.257,50.72,57.91,33.47,35.2
"2016-10-04 00:50:00",255954,0.772,183.2,15.93,79.85,0.6445665,0,867.8342,0,-1.152,3.102,226,18.08,18.27,2.383621,2.642,50.72,57.86,33.47,35.18
"2016-10-04 01:00:00",255955,0.988,187.9,16.01,79.62,0.3615861,0,867.9121,0,-0.994,3.1,240,18.07,18.27,2.243408,2.823,50.72,57.91,33.47,35.2
"2016-10-04 01:10:00",255956,0.706,178.8,15.84,81.8,0.2397473,0,867.9121,0,-0.605,3.099,257,18.06,18.27,1.686346,1.24,50.72,57.91,33.47,35.2
"2016-10-04 01:20:00",255957,0.788,214.5,16.04,79.92,0.03930283,0,867.9226,0,-1.789,3.104,259,17.99,18.27,2.027404,0.795,50.72,57.91,33.47,35.2
"2016-10-04 01:30:00",255958,0.716,178.6,16.44,77.96,0.2004445,0,868.1122,0,-0.679,3.096,252,17.97,18.27,2.269935,2.274,50.72,57.91,33.47,35.2
"2016-10-04 01:40:00",255959,0.753,187.8,16.04,80.6,0.007860567,0,868.0637,0,-0.241,3.095,309,17.97,18.26,1.390762,0.273,50.72,57.91,33.47,35.2
"2016-10-04 01:50:00",255960,0.613,202.8,16.01,80.7,0.2672593,0,867.9016,0,-1.02,3.097,256,17.92,18.26,1.81519,1.816,50.72,57.91,33.47,35.2
"2016-10-04 02:00:00",255961,0.866,178.7,16,81.2,0.003930284,0,867.8383,0,-1.317,3.105,275,17.91,18.25,1.299813,0.177,50.72,57.86,33.47,35.18
"2016-10-04 02:10:00",255962,0.436,160.6,15.42,85,0,0,868.0237,0,-2.51,3.118,211,17.97,18.27,0.74275,0,50.66,57.86,33.46,35.18
"2016-10-04 02:20:00",255963,0.34,248.1,16.2,79.16,0.2043747,0,868.1649,0,-0.942,3.096,258,17.97,18.28,1.913718,2.062,50.66,57.86,33.46,35.18
"2016-10-04 02:30:00",255964,0.625,187.1,16.9,75.91,1.151573,0,868.1522,0,-3.102,3.12,203,17.95,18.28,2.269935,1.882,50.66,57.86,33.46,35.18
"2016-10-04 02:40:00",255965,0.669,188.5,15.75,83.8,0,0,868.1564,0,-1.633,3.109,240,17.89,18.29,0.4547449,0,50.72,57.86,33.47,35.18
"2016-10-04 02:50:00",255966,0.69,195.8,15.77,83.2,0.1336296,0,867.9795,0,-1.681,3.109,225,17.93,18.26,0.8981212,1.117,50.66,57.86,33.46,35.18
"2016-10-04 03:00:00",255967,0.606,213.8,15.65,83.8,0.3144227,0,867.9942,0,-1.304,3.103,280,17.92,18.23,0.9094898,0.637,50.66,57.86,33.46,35.18
"2016-10-04 03:10:00",255968,0.82,189.1,16.22,79.71,1.579974,0,867.9352,0,-2.889,3.117,217,17.94,18.23,1.663608,1.076,50.66,57.86,33.46,35.18
"2016-10-04 03:20:00",255969,0.398,231.8,15.95,82,0.5227277,0,867.9121,0,-1.729,3.109,225,17.92,18.21,0.7541187,0.504,50.72,57.86,33.47,35.18
"2016-10-04 03:30:00",255970,0.275,194.5,15.56,84.5,0,0,867.9142,0,-2.026,3.114,222,17.81,18.16,0.4320077,0,50.66,57.86,33.46,35.18
"2016-10-04 03:40:00",255971,0.428,223,15.59,83.5,0.4912854,0,867.9121,0,-3.683,3.128,201,17.8,18.15,1.023176,1.34,50.66,57.86,33.46,35.18
"2016-10-04 03:50:00",255972,0.505,189.4,16,80.3,0,0,867.9079,0,-2.215,3.11,222,17.82,18.15,1.413499,0,50.66,57.86,33.46,35.18
"2016-10-04 04:00:00",255973,0.471,173.2,15.79,81.8,0,0,867.7709,0,-1.118,3.104,273,17.82,18.15,0.8450676,0,50.66,57.86,33.46,35.18
"2016-10-04 04:10:00",255974,0.477,170.3,15.23,85.9,0,0,867.8763,0,-0.577,3.102,306,17.8,18.15,0.3410587,0,50.66,57.86,33.46,35.18
"2016-10-04 04:20:00",255975,0.408,189.4,15.23,85.7,0,0,867.9163,0,-1.187,3.107,318,17.8,18.16,0.8109618,0,50.66,57.8,33.46,35.17
"2016-10-04 04:30:00",255976,0.428,192.1,15.11,87,0,0,867.9626,0,-0.57,3.101,298,17.76,18.17,0.5646416,0,50.66,57.8,33.46,35.17
"2016-10-04 04:40:00",255977,0.404,185.7,14.96,87.9,0,0,868.0974,0,-0.68,3.103,288,17.72,18.14,0.511588,0,50.66,57.8,33.46,35.17
"2016-10-04 04:50:00",255978,0.517,221.8,15.25,85.4,0,0,868.1649,0,-0.715,3.101,283,17.71,18.15,1.053492,0,50.66,57.8,33.46,35.17
"2016-10-04 05:00:00",255979,0.755,197.2,15.55,83.7,0,0,868.1922,0,-0.375,3.097,309,17.68,18.14,1.174758,0,50.66,57.8,33.46,35.17
"2016-10-04 05:10:00",255980,0.814,195.7,15.33,85.6,0,0,868.2343,0,-1.228,3.106,311,17.7,18.14,0.6252743,0,50.61,57.8,33.45,35.17
"2016-10-04 05:20:00",255981,0.441,165.4,14.93,88.5,0,0,868.407,0,-0.584,3.103,321,17.71,18.14,0.272847,0,50.66,57.8,33.46,35.17
"2016-10-04 05:30:00",255982,0.528,198.4,14.9,89.3,0,0,868.5755,0,-1.447,3.11,268,17.68,18.14,0.3903227,0,50.61,57.86,33.45,35.18
"2016-10-04 05:40:00",255983,0.595,187.6,14.93,89.1,0,0,868.6703,0,-0.173,3.099,339,17.65,18.14,0.5305358,0,50.66,57.8,33.46,35.17
"2016-10-04 05:50:00",255984,0.33,153,14.47,92.4,0.03144227,0,868.7335,0,-1.182,3.11,248,17.64,18.14,0.2235829,0.257,50.61,57.86,33.45,35.18
"2016-10-04 06:00:00",255985,0.495,166.6,14.48,92.8,1.076898,0,868.9189,0,-1.418,3.113,300,17.61,18.12,0.6821173,0.689,50.61,57.8,33.45,35.17
"2016-10-04 06:10:00",255986,0.432,174.3,14.23,95.9,6.284523,0,868.9589,0,-0.784,3.108,328,17.62,18.11,1.178547,0.186,50.66,57.8,33.46,35.17
"2016-10-04 06:20:00",255987,0.493,221.4,14.47,95.3,19.78112,0,869.1442,0,-1.35,3.11,309,17.62,18.1,3.619012,0.182,50.66,57.8,33.46,35.17
"2016-10-04 06:30:00",255988,0.386,185.4,14.73,92.8,18.2601,0,869.1695,0,-1.611,3.113,292,17.6,18.1,3.308269,0.181,50.61,57.8,33.45,35.17
"2016-10-04 06:40:00",255989,0.258,188.5,14.75,94.2,22.8153,0,869.1695,0,-3.923,3.136,206,17.57,18.1,3.581116,0.159,50.66,57.74,33.46,35.16
"2016-10-04 06:50:00",255990,0.562,191.7,14.73,94.9,33.08512,0,869.2347,0,-3.742,3.134,199,17.58,18.1,5.0363,0.152,50.61,57.8,33.45,35.17
"2016-10-04 07:00:00",255991,0.521,205.2,14.96,92.5,46.01576,0,869.3969,0,-4.269,3.137,191,17.58,18.1,6.787068,0.147,50.61,57.8,33.45,35.17
"2016-10-04 07:10:00",255992,0.392,185.1,15.17,91.3,42.32522,0,869.4286,0,-3.706,3.132,195,17.59,18.1,5.854841,0.137,50.61,57.74,33.45,35.16
"2016-10-04 07:20:00",255993,0.315,199.7,15.05,93.7,68.60703,0,869.5002,0,-2.783,3.123,219,17.55,18.1,9.057003,0.132,50.61,57.8,33.45,35.17
"2016-10-04 07:30:00",255994,0.662,196.3,15.22,93.3,91.56381,0,869.4791,0,-3.18,3.125,214,17.54,18.1,12.66844,0.138,50.61,57.8,33.45,35.17
"2016-10-04 07:40:00",255995,0.286,213.8,15.44,91.7,69.89223,0,869.4707,0,-3.127,3.124,216,17.54,18.1,9.24648,0.132,50.61,57.8,33.45,35.17
"2016-10-04 07:50:00",255996,0.583,202.8,15.55,91.8,110.2445,0,869.4286,0,-1.879,3.11,250,17.52,18.1,17.29925,0.153,50.61,57.8,33.45,35.17
"2016-10-04 08:00:00",255997,0.298,236.6,16.05,90.2,167.7602,0,869.4286,0,-2.421,3.112,233,17.53,18.07,30.64602,0.183,50.61,57.74,33.45,35.16
"2016-10-04 08:10:00",255998,0.38,172.7,16.5,87.7,181.2018,0,869.4286,0,-2.186,3.109,268,17.53,18.06,26.86406,0.148,50.61,57.74,33.45,35.16
"2016-10-04 08:20:00",255999,0.235,180.8,16.52,87.8,163.8457,0,869.4622,0,-3.953,3.125,177,17.5,18.06,24.0939,0.146,50.61,57.74,33.45,35.16
"2016-10-04 08:30:00",256000,0.29,277.6,17.05,82.7,257.9956,0,869.6349,0,-3.284,3.115,196,17.48,18.06,42.68539,0.165,50.61,57.74,33.45,35.16
"2016-10-04 08:40:00",256001,0.681,268.1,17.26,80.6,231.4858,0,869.7592,0,-3.218,3.116,199,17.49,18.06,32.82122,0.142,50.55,57.74,33.43,35.16
"2016-10-04 08:50:00",256002,0.67,224,16.96,82.4,252.1513,0,869.7171,0,-2.917,3.114,231,17.47,18.05,35.18968,0.14,50.55,57.74,33.43,35.16
"2016-10-04 09:00:00",256003,0.52,241.5,17.12,81.4,247.9459,0,869.8077,0,-3.425,3.118,188,17.48,18.04,34.55304,0.139,50.61,57.74,33.45,35.16
"2016-10-04 09:10:00",256004,0.637,170.8,17.08,84.7,281.7974,0,869.696,0,-1.569,3.1,232,17.49,18.03,39.5666,0.14,50.55,57.74,33.43,35.16
"2016-10-04 09:20:00",256005,0.418,200.6,17.17,84.1,274.2984,0,869.5654,0,-1.507,3.098,235,17.48,18.02,41.88958,0.152,50.55,57.68,33.43,35.14
"2016-10-04 09:30:00",256006,0.307,210.7,17.89,81.7,252.3792,0,869.6181,0,-3.287,3.112,190,17.53,18.03,36.72065,0.145,50.61,57.68,33.45,35.14
"2016-10-04 09:40:00",256007,0.339,223,17.99,79.53,284.9534,0,869.6876,0,-2.31,3.103,201,17.54,18.02,40.44198,0.142,50.55,57.68,33.43,35.14
"2016-10-04 09:50:00",256008,0.361,167.8,18,79.3,292.4445,0,869.6766,0,-0.189,3.082,286,17.52,17.99,43.95489,0.15,50.55,57.68,33.43,35.14
"2016-10-04 10:00:00",256009,0.158,309.9,18.45,78.62,291.9847,0,869.7383,0,-1.253,3.09,221,17.47,17.97,44.00415,0.151,50.55,57.68,33.43,35.14
"2016-10-04 10:10:00",256010,0.388,26.79,18.56,78.89,264.8854,0,869.8998,0,-1.339,3.089,200,17.54,17.93,47.9718,0.181,50.5,57.68,33.42,35.14
"2016-10-04 10:20:00",256011,0.335,20,18.64,78.58,339.4507,0,869.8392,0,-1.865,3.095,223,17.58,17.9,48.74487,0.147,50.55,57.68,33.43,35.14
"2016-10-04 10:30:00",256012,0.531,344.9,18.62,79.24,697.81,0,869.6918,0,-2.223,3.098,237,17.55,17.89,49.67709,0.073,50.55,57.68,33.43,35.14
"2016-10-04 10:40:00",256013,0.468,59.03,19.08,79.53,682.2854,0,869.6771,0,-1.785,3.091,205,17.56,17.89,57.41912,0.085,50.55,57.62,33.43,35.13
"2016-10-04 10:50:00",256014,0.438,24.83,19.03,78.18,645.1992,0,869.5733,0,-1.427,3.088,211,17.68,17.9,58.57872,0.093,50.55,57.62,33.43,35.13
"2016-10-04 11:00:00",256015,0.366,355.5,19.17,79.14,429.411,0,869.4786,0,-2.254,3.096,200,17.63,17.91,54.97487,0.131,50.55,57.62,33.43,35.13
"2016-10-04 11:10:00",256016,0.475,346.4,19.26,77.44,519.2376,0,869.3871,0,-2.333,3.094,198,17.68,17.95,63.4786,0.128,50.55,57.62,33.43,35.13
"2016-10-04 11:20:00",256017,0.217,254.6,19.91,73.7,709.1135,0,869.3945,0,-1.855,3.088,200,17.78,17.94,86.57206,0.126,50.5,57.62,33.42,35.13
"2016-10-04 11:30:00",256018,0.251,257.2,19.94,71.46,760.1443,0,869.366,0,-1.911,3.089,198,17.74,17.92,95.40549,0.126,50.5,57.62,33.42,35.13
"2016-10-04 11:40:00",256019,0.24,305.5,19.88,72.81,742.1551,0,869.3442,0,-2.698,3.095,194,17.79,17.92,99.95288,0.134,50.5,57.62,33.42,35.13
"2016-10-04 11:50:00",256020,0.517,288.6,20.1,71.2,821.8859,0,869.1349,0,-3.34,3.101,187,17.8,17.91,120.372,0.146,50.5,57.62,33.42,35.13
"2016-10-04 12:00:00",256021,0.627,325.3,20.42,67.92,842.6492,0,869.0859,0,-2.866,3.096,200,17.79,17.89,129.3923,0.153,50.5,57.56,33.42,35.12
"2016-10-04 12:10:00",256022,0.461,315.1,20.03,70.58,821.623,0,868.9935,0,-1.422,3.083,200,17.76,17.77,128.8448,0.157,50.55,57.56,33.43,35.12
"2016-10-04 12:20:00",256023,0.453,25.17,20.2,71.26,741.8724,0,868.8314,0,-2.127,3.088,195,17.87,17.75,115.9785,0.155,50.5,57.56,33.42,35.12
"2016-10-04 12:30:00",256024,0.313,335,20.41,69.55,820.8655,0,868.8309,0,-1.641,3.084,201,17.85,17.74,131.1268,0.159,50.44,57.56,33.41,35.12
"2016-10-04 12:40:00",256025,0.499,245.3,20.46,67.91,795.6927,0,868.837,0,-4.215,3.107,188,17.88,17.73,126.4765,0.158,50.5,57.56,33.42,35.12
"2016-10-04 12:50:00",256026,0.439,232.5,20.51,65.95,827.6818,0,868.8372,0,-3.335,3.099,198,17.94,17.73,133.2029,0.161,50.44,57.56,33.41,35.12
"2016-10-04 13:00:00",256027,0.413,267,20.2,66.79,763.9291,0,868.8294,0,-3.261,3.102,199,17.92,17.72,119.0306,0.156,50.44,57.56,33.41,35.12
"2016-10-04 13:10:00",256028,0.353,270,20.09,65.28,797.8236,0,868.6786,0,-2.937,3.097,199,17.93,17.74,121.1448,0.152,50.44,57.56,33.41,35.12
"2016-10-04 13:20:00",256029,0.489,264.1,20.12,58.96,739.4216,0,868.6139,0,-3.302,3.101,198,17.99,17.71,104.5377,0.141,50.39,57.56,33.39,35.12
"2016-10-04 13:30:00",256030,0.466,273.8,19.86,57.99,651.374,0,868.6014,0,-0.79,3.079,211,18.03,17.71,81.01109,0.121,50.39,57.51,33.39,35.1
"2016-10-04 13:40:00",256031,0.619,265.2,19.45,55.34,346.9686,0,868.6243,0,-1.867,3.091,200,18.05,17.74,38.7634,0.11,50.39,57.51,33.39,35.1
"2016-10-04 13:50:00",256032,0.335,249.1,19.5,54.07,574.1296,0,868.72,0,-1.752,3.088,223,18.05,17.75,50.95422,0.088,50.39,57.51,33.39,35.1
"2016-10-04 14:00:00",256033,0.252,260.2,19.67,51.71,269.2116,0,868.7241,0,-1.606,3.087,246,18.13,17.75,35.69634,0.136,50.39,57.51,33.39,35.1
"2016-10-04 14:10:00",256034,0.223,267.9,19.5,51.26,237.3747,0,868.7226,0,-1.983,3.092,258,18.1,17.78,33.84023,0.143,50.33,57.51,33.38,35.1
"2016-10-04 14:20:00",256035,0.17,252.1,19.25,52.12,238.7168,0,868.8389,0,-1.625,3.089,229,18.2,17.81,34.66661,0.145,50.39,57.45,33.39,35.09
"2016-10-04 14:30:00",256036,0.131,277.5,19.04,55.71,214.8016,0,868.8254,0,-3.718,3.112,192,18.2,17.83,30.17609,0.14,50.33,57.51,33.38,35.1
"2016-10-04 14:40:00",256037,0.262,299.7,18.57,60.29,200.6881,0,868.8216,0,-4.432,3.121,183,18.23,17.86,28.23208,0.141,50.33,57.45,33.38,35.09
"2016-10-04 14:50:00",256038,0.457,288.5,18.13,65.43,194.0027,0,868.8434,0,-4.319,3.122,185,18.33,17.88,27.50449,0.142,50.33,57.51,33.38,35.1
"2016-10-04 15:00:00",256039,0.18,292.1,18.05,68.99,186.1304,0,868.8922,0,-3.851,3.117,186,18.34,17.89,26.42447,0.142,50.33,57.51,33.38,35.1
"2016-10-04 15:10:00",256040,0.135,265.9,18.09,70.22,169.8747,0,868.9186,0,-3.954,3.118,193,18.46,17.89,23.91579,0.141,50.33,57.51,33.38,35.1
"2016-10-04 15:20:00",256041,0.22,303.9,17.79,73.57,147.1302,0,869.0157,0,-2.785,3.109,202,18.41,17.89,20.16794,0.137,50.33,57.45,33.38,35.09
"2016-10-04 15:30:00",256042,0.153,282.4,17.6,73.17,134.8559,0,869.1737,0,-3.689,3.118,182,18.44,17.89,18.76202,0.139,50.28,57.45,33.37,35.09
"2016-10-04 15:40:00",256043,0.25,288.2,17.38,70.24,120.8091,0,869.199,0,-3.878,3.121,192,18.53,17.89,16.62851,0.138,50.28,57.45,33.37,35.09
"2016-10-04 15:50:00",256044,0.004,267,17.12,72.33,112.752,0,869.2327,0,-3.298,3.117,188,18.53,17.89,15.36659,0.136,50.28,57.45,33.37,35.09
"2016-10-04 16:00:00",256045,0.07,287.3,16.9,74.43,98.79553,0,869.2917,0,-2.615,3.112,208,18.5,17.89,13.38466,0.135,50.28,57.45,33.37,35.09
"2016-10-04 16:10:00",256046,0.07,307.4,16.68,75.02,86.06928,0,869.4244,0,-1.695,3.104,238,18.56,17.89,11.86505,0.138,50.28,57.45,33.37,35.09
"2016-10-04 16:20:00",256047,0.264,313.7,16.42,75.17,73.54739,0,869.4286,0,-3.3,3.121,197,18.58,17.9,10.13702,0.138,50.28,57.45,33.37,35.09
"2016-10-04 16:30:00",256048,0.352,328,16.28,75.66,54.90999,0,869.5192,0,-3.616,3.125,183,18.65,17.92,7.658662,0.14,50.22,57.45,33.35,35.09
"2016-10-04 16:40:00",256049,0.137,163.7,16.24,79.12,44.16853,0,869.4622,0,-3.022,3.119,201,18.67,17.94,6.161794,0.139,50.28,57.45,33.37,35.09
"2016-10-04 16:50:00",256050,0.135,176,16.06,80.1,35.78523,0,869.437,0,-1.921,3.109,200,18.67,17.95,5.005983,0.14,50.17,57.39,33.34,35.07
"2016-10-04 17:00:00",256051,0.213,267.4,16.01,81.3,31.71739,0,869.6791,0,-1.572,3.107,213,18.67,17.97,4.846823,0.153,50.22,57.39,33.35,35.07
"2016-10-04 17:10:00",256052,0.011,299.7,15.74,83.4,13.26864,0,869.8962,0,-2.4,3.116,212,18.67,17.97,1.800032,0.135,50.22,57.39,33.35,35.07
"2016-10-04 17:20:00",256053,0.099,81.2,15.59,83.5,7.043068,0,869.934,0,-2.044,3.113,222,18.67,17.97,0.9852807,0.145,50.22,57.39,33.35,35.07
"2016-10-04 17:30:00",256054,0.322,74.89,15.43,83.8,0.4126798,0,869.9319,0,-1.489,3.109,224,18.67,17.97,0.03031633,0.015,50.22,57.39,33.35,35.07
"2016-10-04 17:40:00",256055,0.635,52.99,15.53,80.4,0,0,869.9257,0,-1.722,3.108,210,18.67,17.97,0.2690574,0,50.17,57.39,33.34,35.07
"2016-10-04 17:50:00",256056,0.543,126.5,15.7,81.8,0,0,869.934,0,-2.299,3.119,206,18.67,17.98,0.2690574,0,50.17,57.39,33.34,35.07
"2016-10-04 18:00:00",256057,0.198,186.6,14.69,87.6,0,0,869.934,0,-2.129,3.119,202,18.67,18.03,0,0,50.17,57.39,33.34,35.07
"2016-10-04 18:10:00",256058,0.25,161.4,14.36,88.6,0,0,869.9298,0,-2.401,3.124,200,18.63,18.05,0,0,50.17,57.39,33.34,35.07
"2016-10-04 18:20:00",256059,0.169,191.6,14,87.7,0,0,869.934,0,-3.022,3.131,196,18.59,18.05,0,0,50.17,57.33,33.34,35.06
"2016-10-04 18:30:00",256060,0.108,182.7,13.81,89.7,0,0,869.934,0,-3.038,3.134,203,18.65,18.06,0,0,50.11,57.33,33.33,35.06
"2016-10-04 18:40:00",256061,0.128,189.5,13.32,89.1,0,0,869.934,0,-2.779,3.131,201,18.67,18.06,0.02652679,0,50.17,57.33,33.34,35.06
"2016-10-04 18:50:00",256062,0.069,170.9,13.11,87,0,0,870.014,0,-2.849,3.135,197,18.62,18.06,0.0189477,0,50.17,57.33,33.34,35.06
"2016-10-04 19:00:00",256063,0.003,159.4,13.07,85.8,0,0,870.3658,0,-2.897,3.135,202,18.62,18.06,0.181898,0,50.11,57.33,33.33,35.06
"2016-10-04 19:10:00",256064,0.22,176.8,12.6,84.8,0,0,870.4395,0,-2.742,3.137,203,18.58,18.06,0,0,50.11,57.33,33.33,35.06
"2016-10-04 19:20:00",256065,0.094,180.1,12.53,86.8,0.1218479,0,870.6249,0,-2.31,3.132,208,18.6,18.09,0.2425457,0.177,50.17,57.33,33.34,35.06
"2016-10-04 19:30:00",256066,0.182,197.8,12.67,86.3,0.6721444,0,870.7155,0,-1.862,3.124,206,18.58,18.12,0.5419594,0.862,50.11,57.33,33.33,35.06
"2016-10-04 19:40:00",256067,0.034,231.7,13.35,94.8,0.1572304,0,870.9429,0,-2.395,3.129,216,18.53,18.13,0.848959,0.495,50.11,57.33,33.33,35.06
"2016-10-04 19:50:00",256068,0.342,172.6,12.9,91.9,0,0,870.983,0,-1.875,3.126,212,18.54,18.13,0.3486777,0,50.17,57.33,33.34,35.06
"2016-10-04 20:00:00",256069,0.446,95.5,13.08,97.3,0,0,870.9451,0,-1.749,3.124,236,18.54,18.14,0.4472338,0,50.11,57.27,33.33,35.05
"2016-10-04 20:10:00",256070,0.463,78.39,13.31,100,0,0,870.8524,0,-1.625,3.12,230,18.53,18.15,0.5912572,0,50.11,57.27,33.33,35.05
"2016-10-04 20:20:00",256071,0.183,153.4,13.36,100,0,0,870.8777,0,-1.379,3.119,237,18.46,18.15,0.5988333,0,50.11,57.33,33.33,35.06
"2016-10-04 20:30:00",256072,0.081,61.88,13.4,100,0.007861553,0,870.9008,0,-1.466,3.118,238,18.43,18.17,0.7542197,0.129,50.11,57.27,33.33,35.05
"2016-10-04 20:40:00",256073,0.101,109,13.32,100,0,0,870.8777,0,-1.678,3.122,230,18.41,18.17,0.4055246,0,50.11,57.27,33.33,35.05
"2016-10-04 20:50:00",256074,0.041,20.78,13.29,100,0,0,870.9661,0,-1.724,3.122,229,18.43,18.17,0.450993,0,50.06,57.27,33.31,35.05
"2016-10-04 21:00:00",256075,0.034,122.3,13.15,99.2,0,0,871.1114,0,-1.934,3.126,213,18.37,18.16,0.20844,0,50.11,57.27,33.33,35.05
"2016-10-04 21:10:00",256076,0.225,170.8,12.71,92.6,0,0,871.0272,0,-1.897,3.129,223,18.33,18.15,0,0,50.11,57.22,33.33,35.03
"2016-10-04 21:20:00",256077,0.06,213.6,12.5,94.6,0,0,871.0735,0,-2.037,3.128,219,18.32,18.15,0.003789592,0,50.11,57.27,33.33,35.05
"2016-10-04 21:30:00",256078,0.236,167.7,12.41,94.7,0,0,870.9577,0,-2.501,3.137,201,18.33,18.15,0.09474099,0,50.06,57.27,33.31,35.05
"2016-10-04 21:40:00",256079,0.287,271.1,12.07,96.2,0,0,871.0104,0,-2.313,3.134,207,18.31,18.16,0,0,50.06,57.27,33.31,35.05
"2016-10-04 21:50:00",256080,0.351,199.6,12.01,97.7,0,0,871.0335,0,-2.149,3.134,217,18.28,18.16,0.01136897,0,50.11,57.22,33.33,35.03
"2016-10-04 22:00:00",256081,0.067,188.9,11.93,96.4,0,0,871.1451,0,-2.216,3.136,213,18.32,18.18,0.0568494,0,50.11,57.22,33.33,35.03
"2016-10-04 22:10:00",256082,0.322,196.8,11.41,88.5,0,0,871.0125,0,-2.313,3.139,202,18.3,18.19,0,0,50.11,57.22,33.33,35.03
"2016-10-04 22:20:00",256083,0.176,209.6,11.15,87.4,0,0,870.9451,0,-2.221,3.138,202,18.25,18.22,0,0,50.11,57.22,33.33,35.03
"2016-10-04 22:30:00",256084,0.191,169.9,11.19,88.6,0,0,871.1788,0,-1.877,3.136,212,18.27,18.24,0.121299,0,50.11,57.22,33.33,35.03
"2016-10-04 22:40:00",256085,0.364,182.1,10.95,86.4,0,0,871.1978,0,-1.729,3.135,218,18.26,18.25,0,0,50.06,57.22,33.31,35.03
"2016-10-04 22:50:00",256086,0.389,178.7,10.95,87.3,0,0,871.1788,0,-1.729,3.135,208,18.24,18.26,0.1023509,0,50.11,57.22,33.33,35.03
"2016-10-04 23:00:00",256087,0.43,171.3,10.95,88,0,0,870.9492,0,-1.934,3.137,201,18.25,18.27,0.1516311,0,50.06,57.22,33.31,35.03
"2016-10-04 23:10:00",256088,0.432,175.7,10.91,90.6,0,0,870.6923,0,-1.882,3.136,198,18.21,18.28,0.02274494,0,50.06,57.22,33.31,35.03
"2016-10-04 23:20:00",256089,0.299,184.7,11.09,93.2,0,0,870.6944,0,-1.862,3.137,216,18.21,18.28,0.3715012,0,50.11,57.22,33.33,35.03
"2016-10-04 23:30:00",256090,0.237,184.3,10.91,91.7,0,0,870.6986,0,-2.368,3.141,201,18.16,18.28,0.231241,0,50.06,57.16,33.31,35.02
"2016-10-04 23:40:00",256091,0.341,178.6,10.69,90.1,0,0,870.6923,0,-2.123,3.141,202,18.17,18.28,0.04549003,0,50.11,57.16,33.33,35.02
"2016-10-04 23:50:00",256092,0.25,164.3,10.72,88.9,0,0,870.6923,0,-2.36,3.145,199,18.09,18.28,0.3790836,0,50.11,57.16,33.33,35.02
